sat.trackr.live / text

‹ back to catalog

ONEWEB-0302

NORAD 49091 · 2021-075S

PAYLOAD ACTIVE UNKNOWN

§ Identity

Operator
Country
UK
Launch date
2021-08-21
Launch site
TYMSC
Launch vehicle
Mass (kg)
RCS (m²)

Purposes: comms

External: N2YO · Heavens-Above · Gunter

§ Orbital elements

Epoch: 2026-05-25T03:03:16.725888Z

Period
109.72 min
Inclination
87.8962°
Eccentricity
0.0001561
Mean motion
13.12440813 rev/d
Perigee alt
1,212.5 km
Apogee alt
1,214.9 km
Semi-major
7,591.9 km
B*
3.7669e-4
RAAN
355.2520°
Arg perigee
94.3503°
Mean anomaly
265.7803°
Rev number
23,152

§ Raw data

ONEWEB-03021 49091U 21075S   26145.12727692  .00000148  00000+0  37669-3 0  99982 49091  87.8962 355.2520 0001561  94.3503 265.7803 13.12440813231525

JSON: /api/v1/satellites/49091 · /tle

For live sub-satellite position, see the globe view (requires WebGL).

§ Visibility from observer

Set your observer location to see the next 7 days of passes ≥ 10°. The values pass through the URL so the page stays shareable.

No JS? Fill the form by hand. The geolocation button needs JavaScript.